TimePDT,TemperatureF,Dew PointF,Humidity,Sea Level PressureIn,VisibilityMPH,Wind Direction,Wind SpeedMPH,Gust SpeedMPH,PrecipitationIn,Events,Conditions,WindDirDegrees,DateUTC
12:53 AM,54.0,51.1,90,30.03,10.0,Calm,Calm,-,N/A,,Overcast,0,2012-09-17 07:53:00
1:53 AM,54.0,51.1,90,30.05,10.0,Calm,Calm,-,N/A,,Overcast,0,2012-09-17 08:53:00
2:53 AM,54.0,51.1,90,30.05,9.0,Calm,Calm,-,N/A,,Overcast,0,2012-09-17 09:53:00
3:03 AM,53.6,51.8,94,30.04,9.0,Calm,Calm,-,N/A,,Overcast,0,2012-09-17 10:03:00
3:53 AM,53.1,51.1,93,30.04,8.0,WSW,3.5,-,N/A,,Overcast,250,2012-09-17 10:53:00
5:53 AM,54.0,51.1,90,30.04,6.0,Calm,Calm,-,N/A,,Overcast,0,2012-09-17 12:53:00
6:53 AM,54.0,51.1,90,30.05,10.0,ENE,3.5,-,N/A,,Overcast,60,2012-09-17 13:53:00
7:53 AM,54.0,51.1,90,30.06,8.0,Calm,Calm,-,N/A,,Overcast,0,2012-09-17 14:53:00
8:21 AM,53.6,51.8,94,30.06,9.0,Calm,Calm,-,N/A,,Overcast,0,2012-09-17 15:21:00
8:53 AM,54.0,51.1,90,30.07,10.0,Calm,Calm,-,N/A,,Overcast,0,2012-09-17 15:53:00
9:53 AM,55.0,51.1,86,30.08,9.0,West,3.5,-,N/A,,Overcast,270,2012-09-17 16:53:00
10:49 AM,55.4,50.0,82,30.08,10.0,Calm,Calm,-,N/A,,Overcast,0,2012-09-17 17:49:00
10:53 AM,57.0,50.0,77,30.08,10.0,Variable,3.5,-,N/A,,Overcast,0,2012-09-17 17:53:00
11:53 AM,59.0,50.0,72,30.08,10.0,South,9.2,-,N/A,,Overcast,170,2012-09-17 18:53:00
12:53 PM,57.9,50.0,75,30.07,10.0,SW,9.2,-,N/A,,Overcast,230,2012-09-17 19:53:00
1:48 PM,62.6,50.0,63,30.05,10.0,South,10.4,-,N/A,,Mostly Cloudy,180,2012-09-17 20:48:00
1:53 PM,63.0,50.0,63,30.05,10.0,SSW,9.2,-,N/A,,Scattered Clouds,200,2012-09-17 20:53:00
2:53 PM,62.1,48.9,62,30.04,10.0,SSW,8.1,-,N/A,,Clear,210,2012-09-17 21:53:00
3:53 PM,62.1,48.9,62,30.03,10.0,SW,9.2,-,N/A,,Clear,230,2012-09-17 22:53:00
4:53 PM,60.1,48.9,67,30.03,10.0,SW,9.2,-,N/A,,Unknown,220,2012-09-17 23:53:00
5:53 PM,57.9,48.9,72,30.04,10.0,SW,9.2,-,N/A,,Clear,220,2012-09-18 00:53:00
6:53 PM,55.0,48.9,80,30.04,10.0,WSW,8.1,-,N/A,,Clear,240,2012-09-18 01:53:00
7:53 PM,53.1,48.9,86,30.04,10.0,Calm,Calm,-,N/A,,Clear,0,2012-09-18 02:53:00
8:53 PM,53.1,48.9,86,30.06,10.0,Calm,Calm,-,N/A,,Clear,0,2012-09-18 03:53:00
9:10 PM,53.6,48.2,82,30.06,10.0,Calm,Calm,-,N/A,,Mostly Cloudy,0,2012-09-18 04:10:00
9:53 PM,55.0,50.0,83,30.06,10.0,Calm,Calm,-,N/A,,Overcast,0,2012-09-18 04:53:00
10:53 PM,55.0,50.0,83,30.07,10.0,SSE,3.5,-,N/A,,Overcast,160,2012-09-18 05:53:00
11:53 PM,55.0,50.0,83,30.07,10.0,Calm,Calm,-,N/A,,Overcast,0,2012-09-18 06:53:00